TimeCDT,TemperatureF,Dew PointF,Humidity,Sea Level PressureIn,VisibilityMPH,Wind Direction,Wind SpeedMPH,Gust SpeedMPH,PrecipitationIn,Events,Conditions,WindDirDegrees,DateUTC
12:53 AM,71.6,69.8,94,29.86,5.6,SSE,2.3,-,N/A,,Partly Cloudy,150,2012-10-16 04:53:00
1:53 AM,71.6,68.0,88,29.86,5.6,Variable,2.3,-,N/A,,Partly Cloudy,0,2012-10-16 05:53:00
2:53 AM,71.6,68.0,88,29.83,5.6,SW,3.5,-,N/A,,Partly Cloudy,230,2012-10-16 06:53:00
3:53 AM,69.8,66.2,88,29.83,5.6,SSE,3.5,-,N/A,,Partly Cloudy,150,2012-10-16 07:53:00
4:53 AM,69.8,68.0,94,29.83,5.6,South,2.3,-,N/A,,Partly Cloudy,170,2012-10-16 08:53:00
5:53 AM,69.8,66.2,88,29.83,5.6,Variable,2.3,-,N/A,,Partly Cloudy,0,2012-10-16 09:53:00
6:54 AM,69.8,68.0,94,29.83,5.6,SE,3.5,-,N/A,,Partly Cloudy,140,2012-10-16 10:54:00
7:52 AM,69.8,68.0,94,29.86,5.6,Variable,1.2,-,N/A,,Scattered Clouds,0,2012-10-16 11:52:00
8:54 AM,75.2,73.4,94,29.86,6.2,Variable,2.3,-,N/A,,Mostly Cloudy,0,2012-10-16 12:54:00
9:52 AM,80.6,73.4,79,29.89,6.2,Variable,2.3,33.4,N/A,,Scattered Clouds,0,2012-10-16 13:52:00
10:50 AM,84.2,73.4,70,29.89,6.2,NNE,10.4,41.4,N/A,,Mostly Cloudy,20,2012-10-16 14:50:00
11:50 AM,84.2,71.6,66,29.89,6.2,NNE,9.2,40.3,N/A,,Scattered Clouds,20,2012-10-16 15:50:00
12:51 PM,84.2,71.6,66,29.89,6.2,NNE,10.4,-,N/A,,Scattered Clouds,20,2012-10-16 16:51:00
1:50 PM,84.2,71.6,66,29.83,6.2,NNE,9.2,-,N/A,,Mostly Cloudy,20,2012-10-16 17:50:00
2:53 PM,84.2,71.6,66,29.83,5.6,NNE,10.4,-,N/A,,Partly Cloudy,20,2012-10-16 18:53:00
3:50 PM,84.2,69.8,62,29.80,6.2,North,10.4,-,N/A,,Scattered Clouds,10,2012-10-16 19:50:00
4:51 PM,84.2,71.6,66,29.80,6.2,NNE,12.7,-,N/A,,Partly Cloudy,20,2012-10-16 20:51:00
5:50 PM,82.4,71.6,70,29.80,6.2,NE,12.7,-,N/A,,Partly Cloudy,40,2012-10-16 21:50:00
6:52 PM,78.8,71.6,78,29.80,6.2,NE,9.2,-,N/A,,Partly Cloudy,40,2012-10-16 22:52:00
7:50 PM,-9999,-9999,N/A,-9999,-9999.0,North,-9999.0,-,N/A,,Unknown,0,2012-10-16 23:50:00
8:53 PM,75.2,71.6,89,29.83,5.6,ENE,2.3,-,N/A,,Partly Cloudy,70,2012-10-17 00:53:00
9:53 PM,75.2,71.6,89,29.86,5.6,NE,3.5,-,N/A,,Partly Cloudy,50,2012-10-17 01:53:00
10:51 PM,75.2,71.6,89,29.86,5.6,NE,2.3,-,N/A,,Partly Cloudy,50,2012-10-17 02:51:00
11:50 PM,71.6,68.0,88,29.89,5.6,SE,3.5,-,N/A,,Partly Cloudy,140,2012-10-17 03:50:00